{"data":{"norad_id":68004,"epoch":"2026-05-24T22:59:53.517120Z","epoch_age_seconds":74583,"freshness":"FRESH","line1":"1 68004U 26039U   26144.95825830  .00014839  00000+0  54742-3 0  9994","line2":"2 68004  43.0001 338.5571 0001007 271.1878  88.8858 15.27596326 13366","mean_motion":15.27596326,"eccentricity":0.0001007,"inclination_deg":43.0001,"raan_deg":338.5571,"arg_perigee_deg":271.1878,"mean_anomaly_deg":88.8858,"bstar":0.00054742,"rev_number":1336,"period_min":94.265741249236,"perigee_km":482.30929404069,"apogee_km":483.69112707489,"semimajor_km":6861.1372105578,"source":"CELESTRAK","updated_at":"2026-05-25T13:38:21.782729Z"}}